Current Weather Conditions by Major Hwy


I-84 West to East [Columbia River Gorge] 800 PM PDT TUE AUG 11 2020 ELEVA CITY SKY/WX TMP DP RH WIND PRES REMARKS 10 ASTORIA, OR PTCLDY 60 51 72 NW10 29.99S 20 KELSO CLEAR 63 50 62 VRB7G16 29.96R 40 PORTLAND, OR MOCLDY 71 45 39 N9 29.91R 30 TROUTDALE, OR CLEAR 73 35 25 VRB6 29.90R 240 THE DALLES, OR PTCLDY 75 47 36 W17G26 29.81R 620 HERMISTON, OR N/A N/A N/A N/A MISG 29.71R 1,480 PENDLETON, OR CLEAR 79 23 12 W14G24 29.78R 2,710 LA GRANDE CLEAR 77 31 18 NW13 29.83R 3,370 BAKER CITY PTCLDY 73 30 20 NW10G17 29.84R 2,190 ONTARIO CLOUDY 86 46 24 S10 29.70F
I-90 West to East 800 PM PDT TUE AUG 11 2020 ELEVA CITY SKY/WX TMP DP RH WIND PRES REMARKS 30 SEATAC AIRPORT MOCLDY 66 47 50 S9 29.89F 1,730 ELLENSBURG PTCLDY 69 37 30 NW23G37 29.81R 1,200 MOSES LAKE PTCLDY 83 34 17 NW10 29.68R 1,880 SPOKANE GEIGER MOCLDY 78 33 19 SW12 29.74S
I-82 North West to South East 800 PM PDT TUE AUG 11 2020 ELEVA CITY SKY/WX TMP DP RH WIND PRES REMARKS 1,730 ELLENSBURG PTCLDY 69 37 30 NW23G37 29.81R 1,050 YAKIMA TC FAIR 75 33 21 N10 29.75R 720 360 PASCO PTCLDY 81 40 23 NW8 29.68R 620 HERMISTON, OR N/A N/A N/A N/A MISG 29.71R
Hwy97 North to South 800 PM PDT TUE AUG 11 2020 ELEVA CITY SKY/WX TMP DP RH WIND PRES REMARKS 850 OMAK PTCLDY 81 38 21 NW21 29.63R 630 WENATCHEE PTCLDY 77 37 23 W20 29.72R 1,730 ELLENSBURG PTCLDY 69 37 30 NW23G37 29.81R 1,050 YAKIMA TC FAIR 75 33 21 N10 29.75R 1,640 GOLDENDALE* PTCLDY 75 47 36 W17G26 29.81R *From Dallesport Airport Elev 240 3,080 REDMOND CLEAR 75 34 22 NW13G22 29.90R 4,100 KLAMATH FALLS PTCLDY 77 42 28 NW16 29.96R
I-5 North to South 800 PM PDT TUE AUG 11 2020 ELEVA CITY SKY/WX TMP DP RH WIND PRES REMARKS 150 BELLINGHAM CLEAR 62 49 62 S10 29.86S 100 ARLINGTON N/A 61 46 57 NW9G20 29.91S 610 EVERETT CLEAR 58 49 72 N10G20 29.91S 30 SEATAC AIRPORT MOCLDY 66 47 50 S9 29.89F 200 OLYMPIA CLEAR 62 44 51 S10 29.91S 20 KELSO CLEAR 63 50 62 VRB7G16 29.96R 100 VANCOUVER CLEAR 71 44 37 N8G17 29.90R 40 PORTLAND MOCLDY 71 45 39 N9 29.91R 200 SALEM CLEAR 69 44 40 NW7 29.90R 360 EUGENE PTCLDY 74 39 28 W9 29.91R 510 ROSEBURG CLEAR 76 39 26 NW6 29.91R 1,300 MEDFORD CLEAR 85 39 19 N12 29.86R
Data from:
http://www.wrh.noaa.gov/sew/get.php?pil=RWR&sid=OR&version=0&format=printer
http://www.wrh.noaa.gov/sew/get.php?pil=RWR&sid=WA&version=0&format=printer

Current Observations

Washington State Current Weather Observations   …  Oregon State Current Weather Observation



48 Hour Forecast

Seattle  …  Vancouver  …  Portland
————————————————————————————————————————
Bend  …  Spokane  …  Richland  …  Pendleton  …  Blue Mountains I-84  …  Yakima
————————————————————————————————————————
Goldendale, Washington Higher Elevations  …  Dallesport Airport - Goldendale  …  Bingen - White Salmon - Hood River  …  Index


Top of Page